"Sample Date","Sample Time","Sample Value","Units","Flow Rate","Sample Interval","Number Channels","Micron Size 0","Counts/Channel 0","Micron Size 1","Counts/Channel 1","Micron Size 2","Counts/Channel 2","Micron Size 3","Counts/Channel 3","Micron Size 4","Counts/Channel 4","Micron Size 5","Counts/Channel 5","Micron Size 6","Counts/Channel 6","Micron Size 7","Counts/Channel 7","Micron Size 8","Counts/Channel 8","Micron Size 9","Counts/Channel 9","Micron Size 10","Counts/Channel 10","Micron Size 11","Counts/Channel 11","Micron Size 12","Counts/Channel 12","Micron Size 13","Counts/Channel 13","Micron Size 14","Counts/Channel 14","Micron Size 15","Counts/Channel 15","Micron Size 16","Counts/Channel 16","Micron Size 17","Counts/Channel 17","Micron Size 18","Counts/Channel 18","Micron Size 19","Counts/Channel 19","Micron Size 20","Counts/Channel 20","Micron Size 21","Counts/Channel 21","Micron Size 22","Counts/Channel 22","Micron Size 23","Counts/Channel 23","Micron Size 24","Counts/Channel 24","Micron Size 25","Counts/Channel 25","Micron Size 26","Counts/Channel 26","Micron Size 27","Counts/Channel 27","Micron Size 28","Counts/Channel 28","Micron Size 29","Counts/Channel 29","Micron Size 30","Counts/Channel 30","Micron Size 31","Counts/Channel 31"
"04/09/08","03:00:01",11938.000,"cc",28342.742,6.00,6,0.100,6196.000,0.200,1723.000,0.300,1533.000,0.500,1732.000,1.000,754.000,5.000,0
"04/09/08","03:00:07",11867.000,"cc",28364.930,6.00,6,0.100,6333.000,0.200,1697.000,0.300,1462.000,0.500,1696.000,1.000,679.000,5.000,0
"04/09/08","03:00:13",11562.000,"cc",28190.766,6.00,6,0.100,6106.000,0.200,1679.000,0.300,1428.000,0.500,1747.000,1.000,602.000,5.000,0
"04/09/08","03:00:19",11731.000,"cc",28296.266,6.00,6,0.100,6132.000,0.200,1708.000,0.300,1475.000,0.500,1744.000,1.000,672.000,5.000,0
"04/09/08","03:00:25",12253.000,"cc",28432.109,6.00,6,0.100,6309.000,0.200,1763.000,0.300,1546.000,0.500,1932.000,1.000,703.000,5.000,0
"04/09/08","03:00:31",12190.000,"cc",28367.344,6.00,6,0.100,6223.000,0.200,1829.000,0.300,1583.000,0.500,1847.000,1.000,707.000,5.000,1.000
"04/09/08","03:00:37",12086.000,"cc",28276.934,6.00,6,0.100,6274.000,0.200,1807.000,0.300,1511.000,0.500,1795.000,1.000,699.000,5.000,0
"04/09/08","03:00:43",11962.000,"cc",28406.576,6.00,6,0.100,6293.000,0.200,1717.000,0.300,1502.000,0.500,1799.000,1.000,651.000,5.000,0
"04/09/08","03:00:49",11594.000,"cc",28303.359,6.00,6,0.100,6236.000,0.200,1664.000,0.300,1371.000,0.500,1664.000,1.000,659.000,5.000,0
"04/09/08","03:00:55",11891.000,"cc",28228.711,6.00,6,0.100,6257.000,0.200,1731.000,0.300,1466.000,0.500,1772.000,1.000,665.000,5.000,0
"04/09/08","03:01:01",11581.000,"cc",28287.221,6.00,6,0.100,6196.000,0.200,1647.000,0.300,1476.000,0.500,1634.000,1.000,628.000,5.000,0
"04/09/08","03:01:07",12027.000,"cc",28295.135,6.00,6,0.100,6341.000,0.200,1714.000,0.300,1433.000,0.500,1848.000,1.000,691.000,5.000,0
"04/09/08","03:01:13",12285.000,"cc",28336.947,6.00,6,0.100,6312.000,0.200,1765.000,0.300,1548.000,0.500,1947.000,1.000,713.000,5.000,0
"04/09/08","03:01:19",12315.000,"cc",28325.244,6.00,6,0.100,6492.000,0.200,1736.000,0.300,1529.000,0.500,1855.000,1.000,703.000,5.000,0
"04/09/08","03:01:25",11598.000,"cc",28314.295,6.00,6,0.100,6092.000,0.200,1792.000,0.300,1410.000,0.500,1658.000,1.000,646.000,5.000,0
"04/09/08","03:01:31",11842.000,"cc",28307.275,6.00,6,0.100,6154.000,0.200,1744.000,0.300,1489.000,0.500,1779.000,1.000,676.000,5.000,0
"04/09/08","03:01:37",11653.000,"cc",28325.758,6.00,6,0.100,6100.000,0.200,1735.000,0.300,1392.000,0.500,1721.000,1.000,705.000,5.000,0
"04/09/08","03:01:43",11687.000,"cc",28298.113,6.00,6,0.100,6079.000,0.200,1698.000,0.300,1459.000,0.500,1760.000,1.000,691.000,5.000,0
"04/09/08","03:01:49",11482.000,"cc",28269.297,6.00,6,0.100,6143.000,0.200,1653.000,0.300,1386.000,0.500,1677.000,1.000,623.000,5.000,0
"04/09/08","03:01:55",12121.000,"cc",28324.481,6.00,6,0.100,6352.000,0.200,1784.000,0.300,1496.000,0.500,1813.000,1.000,676.000,5.000,0
"04/09/08","03:02:01",12134.000,"cc",28435.611,6.00,6,0.100,6406.000,0.200,1758.000,0.300,1497.000,0.500,1776.000,1.000,697.000,5.000,0
"04/09/08","03:02:07",11949.000,"cc",28377.822,6.00,6,0.100,6291.000,0.200,1759.000,0.300,1446.000,0.500,1768.000,1.000,685.000,5.000,0
"04/09/08","03:02:13",11710.000,"cc",28146.371,6.00,6,0.100,6156.000,0.200,1695.000,0.300,1483.000,0.500,1712.000,1.000,664.000,5.000,0
"04/09/08","03:02:19",11868.000,"cc",28316.938,6.00,6,0.100,6211.000,0.200,1762.000,0.300,1439.000,0.500,1762.000,1.000,694.000,5.000,0
"04/09/08","03:02:25",11599.000,"cc",28318.412,6.00,6,0.100,6056.000,0.200,1692.000,0.300,1461.000,0.500,1741.000,1.000,649.000,5.000,0
"04/09/08","03:02:31",11794.000,"cc",28381.998,6.00,6,0.100,6196.000,0.200,1673.000,0.300,1418.000,0.500,1820.000,1.000,687.000,5.000,0
"04/09/08","03:02:37",11760.000,"cc",28328.721,6.00,6,0.100,6274.000,0.200,1695.000,0.300,1409.000,0.500,1728.000,1.000,653.000,5.000,1.000
"04/09/08","03:02:43",12061.000,"cc",28393.492,6.00,6,0.100,6316.000,0.200,1721.000,0.300,1507.000,0.500,1811.000,1.000,706.000,5.000,0
"04/09/08","03:02:49",12259.000,"cc",28302.623,6.00,6,0.100,6389.000,0.200,1822.000,0.300,1540.000,0.500,1753.000,1.000,755.000,5.000,0
"04/09/08","03:02:55",11758.000,"cc",28197.416,6.00,6,0.100,6178.000,0.200,1726.000,0.300,1441.000,0.500,1713.000,1.000,700.000,5.000,0
"04/09/08","03:03:01",11648.000,"cc",28326.422,6.00,6,0.100,6167.000,0.200,1663.000,0.300,1450.000,0.500,1712.000,1.000,656.000,5.000,0
"04/09/08","03:03:07",11718.000,"cc",28328.836,6.00,6,0.100,6149.000,0.200,1746.000,0.300,1402.000,0.500,1716.000,1.000,705.000,5.000,0
"04/09/08","03:03:13",11460.000,"cc",28365.156,6.00,6,0.100,6209.000,0.200,1596.000,0.300,1379.000,0.500,1603.000,1.000,673.000,5.000,0
"04/09/08","03:03:19",11686.000,"cc",28265.912,6.00,6,0.100,6194.000,0.200,1695.000,0.300,1431.000,0.500,1735.000,1.000,631.000,5.000,0
"04/09/08","03:03:25",11478.000,"cc",28262.731,6.00,6,0.100,6019.000,0.200,1632.000,0.300,1429.000,0.500,1746.000,1.000,652.000,5.000,0
"04/09/08","03:03:31",11724.000,"cc",28343.256,6.00,6,0.100,6207.000,0.200,1728.000,0.300,1452.000,0.500,1679.000,1.000,657.000,5.000,1.000
"04/09/08","03:03:37",11482.000,"cc",28291.197,6.00,6,0.100,6180.000,0.200,1726.000,0.300,1354.000,0.500,1626.000,1.000,596.000,5.000,0
"04/09/08","03:03:43",11204.000,"cc",28295.543,6.00,6,0.100,6109.000,0.200,1545.000,0.300,1329.000,0.500,1635.000,1.000,586.000,5.000,0
"04/09/08","03:03:49",11174.000,"cc",28316.180,6.00,6,0.100,6050.000,0.200,1622.000,0.300,1313.000,0.500,1592.000,1.000,597.000,5.000,0
"04/09/08","03:03:55",11028.000,"cc",28483.275,6.00,6,0.100,6010.000,0.200,1531.000,0.300,1271.000,0.500,1622.000,1.000,593.000,5.000,1.000
"04/09/08","03:04:01",10929.000,"cc",28188.357,6.00,6,0.100,6007.000,0.200,1483.000,0.300,1336.000,0.500,1513.000,1.000,590.000,5.000,0
"04/09/08","03:04:07",11276.000,"cc",28428.123,6.00,6,0.100,6011.000,0.200,1603.000,0.300,1394.000,0.500,1630.000,1.000,638.000,5.000,0
"04/09/08","03:04:13",11402.000,"cc",28129.131,6.00,6,0.100,6151.000,0.200,1574.000,0.300,1426.000,0.500,1658.000,1.000,593.000,5.000,0
"04/09/08","03:04:19",11842.000,"cc",28244.627,6.00,6,0.100,6212.000,0.200,1703.000,0.300,1471.000,0.500,1750.000,1.000,706.000,5.000,0
"04/09/08","03:04:25",12066.000,"cc",28230.311,6.00,6,0.100,6382.000,0.200,1746.000,0.300,1532.000,0.500,1749.000,1.000,657.000,5.000,0
"04/09/08","03:04:31",12206.000,"cc",28432.525,6.00,6,0.100,6387.000,0.200,1836.000,0.300,1513.000,0.500,1752.000,1.000,718.000,5.000,0
"04/09/08","03:04:37",11457.000,"cc",28416.664,6.00,6,0.100,6051.000,0.200,1660.000,0.300,1411.000,0.500,1688.000,1.000,647.000,5.000,0
"04/09/08","03:04:43",11359.000,"cc",28301.356,6.00,6,0.100,6039.000,0.200,1627.000,0.300,1388.000,0.500,1661.000,1.000,644.000,5.000,0
"04/09/08","03:04:49",11312.000,"cc",28283.328,6.00,6,0.100,6037.000,0.200,1620.000,0.300,1356.000,0.500,1680.000,1.000,619.000,5.000,0
"04/09/08","03:04:55",11315.000,"cc",28341.979,6.00,6,0.100,6036.000,0.200,1623.000,0.300,1439.000,0.500,1564.000,1.000,653.000,5.000,0
"04/09/08","03:05:01",11658.000,"cc",28224.617,6.00,6,0.100,6216.000,0.200,1629.000,0.300,1446.000,0.500,1683.000,1.000,684.000,5.000,0
"04/09/08","03:05:07",11580.000,"cc",28341.391,6.00,6,0.100,6209.000,0.200,1625.000,0.300,1398.000,0.500,1699.000,1.000,649.000,5.000,0
"04/09/08","03:05:13",11989.000,"cc",28347.895,6.00,6,0.100,6226.000,0.200,1737.000,0.300,1511.000,0.500,1828.000,1.000,686.000,5.000,1.000
"04/09/08","03:05:19",11937.000,"cc",28192.047,6.00,6,0.100,6364.000,0.200,1772.000,0.300,1446.000,0.500,1713.000,1.000,642.000,5.000,0
"04/09/08","03:05:25",11926.000,"cc",28271.377,6.00,6,0.100,6393.000,0.200,1734.000,0.300,1435.000,0.500,1715.000,1.000,649.000,5.000,0
"04/09/08","03:05:31",11739.000,"cc",28364.742,6.00,6,0.100,6390.000,0.200,1655.000,0.300,1391.000,0.500,1649.000,1.000,654.000,5.000,0
"04/09/08","03:05:37",11865.000,"cc",28384.434,6.00,6,0.100,6211.000,0.200,1706.000,0.300,1537.000,0.500,1713.000,1.000,698.000,5.000,0
"04/09/08","03:05:43",12215.000,"cc",28272.953,6.00,6,0.100,6526.000,0.200,1708.000,0.300,1508.000,0.500,1783.000,1.000,690.000,5.000,0
"04/09/08","03:05:49",11134.000,"cc",28407.789,6.00,6,0.100,5913.000,0.200,1543.000,0.300,1411.000,0.500,1675.000,1.000,592.000,5.000,0
"04/09/08","03:05:55",11034.000,"cc",28291.666,6.00,6,0.100,5887.000,0.200,1622.000,0.300,1357.000,0.500,1559.000,1.000,609.000,5.000,0
"04/09/08","03:06:01",11391.000,"cc",28378.115,6.00,6,0.100,6189.000,0.200,1584.000,0.300,1290.000,0.500,1688.000,1.000,640.000,5.000,0
"04/09/08","03:06:07",10989.000,"cc",28296.924,6.00,6,0.100,5876.000,0.200,1614.000,0.300,1394.000,0.500,1502.000,1.000,603.000,5.000,0
"04/09/08","03:06:13",11028.000,"cc",28345.258,6.00,6,0.100,5912.000,0.200,1569.000,0.300,1340.000,0.500,1573.000,1.000,634.000,5.000,0
"04/09/08","03:06:19",11557.000,"cc",28249.027,6.00,6,0.100,6145.000,0.200,1725.000,0.300,1421.000,0.500,1668.000,1.000,598.000,5.000,0
"04/09/08","03:06:25",11788.000,"cc",28339.590,6.00,6,0.100,6219.000,0.200,1666.000,0.300,1457.000,0.500,1729.000,1.000,717.000,5.000,0
"04/09/08","03:06:31",11672.000,"cc",28320.152,6.00,6,0.100,6195.000,0.200,1715.000,0.300,1372.000,0.500,1738.000,1.000,652.000,5.000,0
"04/09/08","03:06:37",11669.000,"cc",28413.949,6.00,6,0.100,6208.000,0.200,1602.000,0.300,1469.000,0.500,1713.000,1.000,677.000,5.000,0
"04/09/08","03:06:43",11551.000,"cc",28352.586,6.00,6,0.100,6056.000,0.200,1709.000,0.300,1480.000,0.500,1648.000,1.000,658.000,5.000,0
"04/09/08","03:06:49",10951.000,"cc",28310.440,6.00,6,0.100,5939.000,0.200,1511.000,0.300,1340.000,0.500,1550.000,1.000,611.000,5.000,0
"04/09/08","03:06:55",11211.000,"cc",28322.041,6.00,6,0.100,6037.000,0.200,1557.000,0.300,1332.000,0.500,1609.000,1.000,676.000,5.000,0
"04/09/08","03:07:01",11317.000,"cc",28317.715,6.00,6,0.100,6017.000,0.200,1679.000,0.300,1330.000,0.500,1651.000,1.000,640.000,5.000,0
"04/09/08","03:07:07",11855.000,"cc",28247.516,6.00,6,0.100,6382.000,0.200,1642.000,0.300,1406.000,0.500,1747.000,1.000,678.000,5.000,0
"04/09/08","03:07:13",11231.000,"cc",28302.656,6.00,6,0.100,6085.000,0.200,1587.000,0.300,1382.000,0.500,1592.000,1.000,585.000,5.000,0
"04/09/08","03:07:19",11095.000,"cc",28326.758,6.00,6,0.100,6035.000,0.200,1551.000,0.300,1314.000,0.500,1556.000,1.000,639.000,5.000,0
"04/09/08","03:07:25",10919.000,"cc",28296.572,6.00,6,0.100,5942.000,0.200,1497.000,0.300,1337.000,0.500,1556.000,1.000,587.000,5.000,0
"04/09/08","03:07:31",11161.000,"cc",28361.266,6.00,6,0.100,5893.000,0.200,1560.000,0.300,1360.000,0.500,1717.000,1.000,631.000,5.000,0
"04/09/08","03:07:37",11417.000,"cc",28373.848,6.00,6,0.100,6015.000,0.200,1675.000,0.300,1360.000,0.500,1701.000,1.000,666.000,5.000,0
"04/09/08","03:07:43",12235.000,"cc",28284.404,6.00,6,0.100,6315.000,0.200,1790.000,0.300,1585.000,0.500,1841.000,1.000,704.000,5.000,0
"04/09/08","03:07:49",12099.000,"cc",28207.422,6.00,6,0.100,6270.000,0.200,1820.000,0.300,1550.000,0.500,1753.000,1.000,706.000,5.000,0
"04/09/08","03:07:55",11820.000,"cc",28407.426,6.00,6,0.100,6184.000,0.200,1725.000,0.300,1486.000,0.500,1750.000,1.000,675.000,5.000,0
"04/09/08","03:08:01",11148.000,"cc",28392.350,6.00,6,0.100,6002.000,0.200,1573.000,0.300,1354.000,0.500,1610.000,1.000,609.000,5.000,0
"04/09/08","03:08:07",10986.000,"cc",28369.676,6.00,6,0.100,5918.000,0.200,1515.000,0.300,1311.000,0.500,1608.000,1.000,633.000,5.000,1.000
"04/09/08","03:08:13",11173.000,"cc",28269.315,6.00,6,0.100,5900.000,0.200,1638.000,0.300,1335.000,0.500,1633.000,1.000,666.000,5.000,1.000
"04/09/08","03:08:19",11182.000,"cc",28188.541,6.00,6,0.100,6041.000,0.200,1607.000,0.300,1265.000,0.500,1645.000,1.000,624.000,5.000,0
"04/09/08","03:08:25",11436.000,"cc",28283.482,6.00,6,0.100,6181.000,0.200,1628.000,0.300,1335.000,0.500,1641.000,1.000,651.000,5.000,0
"04/09/08","03:08:31",11353.000,"cc",28376.744,6.00,6,0.100,6039.000,0.200,1644.000,0.300,1365.000,0.500,1665.000,1.000,640.000,5.000,0
"04/09/08","03:08:37",11160.000,"cc",28349.859,6.00,6,0.100,6117.000,0.200,1552.000,0.300,1266.000,0.500,1654.000,1.000,571.000,5.000,0
"04/09/08","03:08:43",11332.000,"cc",28313.025,6.00,6,0.100,6001.000,0.200,1651.000,0.300,1386.000,0.500,1670.000,1.000,624.000,5.000,0
"04/09/08","03:08:49",11262.000,"cc",28245.293,6.00,6,0.100,5868.000,0.200,1649.000,0.300,1387.000,0.500,1705.000,1.000,653.000,5.000,0
"04/09/08","03:08:55",11557.000,"cc",28255.387,6.00,6,0.100,5989.000,0.200,1720.000,0.300,1517.000,0.500,1692.000,1.000,639.000,5.000,0
"04/09/08","03:09:01",11982.000,"cc",28400.115,6.00,6,0.100,6269.000,0.200,1780.000,0.300,1505.000,0.500,1771.000,1.000,657.000,5.000,0
"04/09/08","03:09:07",11889.000,"cc",28270.975,6.00,6,0.100,6139.000,0.200,1775.000,0.300,1491.000,0.500,1778.000,1.000,706.000,5.000,0
"04/09/08","03:09:13",11733.000,"cc",28378.510,6.00,6,0.100,6121.000,0.200,1700.000,0.300,1465.000,0.500,1774.000,1.000,673.000,5.000,0
"04/09/08","03:09:19",11351.000,"cc",28374.346,6.00,6,0.100,6038.000,0.200,1625.000,0.300,1380.000,0.500,1668.000,1.000,639.000,5.000,1.000
"04/09/08","03:09:25",10672.000,"cc",28277.318,6.00,6,0.100,5873.000,0.200,1437.000,0.300,1243.000,0.500,1536.000,1.000,583.000,5.000,0
"04/09/08","03:09:31",10724.000,"cc",28278.094,6.00,6,0.100,5760.000,0.200,1519.000,0.300,1286.000,0.500,1507.000,1.000,652.000,5.000,0
"04/09/08","03:09:37",10795.000,"cc",28245.680,6.00,6,0.100,5735.000,0.200,1526.000,0.300,1277.000,0.500,1653.000,1.000,604.000,5.000,0
"04/09/08","03:09:43",10840.000,"cc",28381.898,6.00,6,0.100,5887.000,0.200,1510.000,0.300,1288.000,0.500,1571.000,1.000,584.000,5.000,0
"04/09/08","03:09:49",11120.000,"cc",28299.549,6.00,6,0.100,5863.000,0.200,1570.000,0.300,1399.000,0.500,1675.000,1.000,613.000,5.000,0
"04/09/08","03:09:55",11349.000,"cc",28423.338,6.00,6,0.100,6125.000,0.200,1563.000,0.300,1337.000,0.500,1623.000,1.000,700.000,5.000,1.000
"04/09/08","03:10:01",10715.000,"cc",28391.436,6.00,6,0.100,5716.000,0.200,1487.000,0.300,1312.000,0.500,1602.000,1.000,598.000,5.000,0
"04/09/08","03:10:07",10950.000,"cc",28227.051,6.00,6,0.100,5937.000,0.200,1551.000,0.300,1313.000,0.500,1561.000,1.000,588.000,5.000,0
"04/09/08","03:10:13",11155.000,"cc",28190.010,6.00,6,0.100,6042.000,0.200,1563.000,0.300,1294.000,0.500,1606.000,1.000,650.000,5.000,0
"04/09/08","03:10:19",10449.000,"cc",28370.342,6.00,6,0.100,5615.000,0.200,1481.000,0.300,1257.000,0.500,1527.000,1.000,569.000,5.000,0
"04/09/08","03:10:25",10977.000,"cc",28300.670,6.00,6,0.100,5885.000,0.200,1509.000,0.300,1397.000,0.500,1576.000,1.000,610.000,5.000,0
"04/09/08","03:10:31",11148.000,"cc",28373.807,6.00,6,0.100,5899.000,0.200,1536.000,0.300,1393.000,0.500,1667.000,1.000,653.000,5.000,0
"04/09/08","03:10:37",11199.000,"cc",28202.000,6.00,6,0.100,5893.000,0.200,1634.000,0.300,1373.000,0.500,1640.000,1.000,659.000,5.000,0
"04/09/08","03:10:43",11248.000,"cc",28249.930,6.00,6,0.100,5974.000,0.200,1554.000,0.300,1415.000,0.500,1659.000,1.000,646.000,5.000,0
"04/09/08","03:10:49",11842.000,"cc",28268.363,6.00,6,0.100,6233.000,0.200,1747.000,0.300,1487.000,0.500,1717.000,1.000,658.000,5.000,0
"04/09/08","03:10:55",12107.000,"cc",28291.859,6.00,6,0.100,6262.000,0.200,1792.000,0.300,1473.000,0.500,1933.000,1.000,647.000,5.000,0
"04/09/08","03:11:01",11630.000,"cc",28306.100,6.00,6,0.100,6129.000,0.200,1677.000,0.300,1415.000,0.500,1745.000,1.000,664.000,5.000,0
"04/09/08","03:11:07",11528.000,"cc",28441.881,6.00,6,0.100,5965.000,0.200,1703.000,0.300,1500.000,0.500,1761.000,1.000,599.000,5.000,0
"04/09/08","03:11:13",11637.000,"cc",28284.645,6.00,6,0.100,6111.000,0.200,1697.000,0.300,1442.000,0.500,1689.000,1.000,698.000,5.000,0
"04/09/08","03:11:19",11440.000,"cc",28306.035,6.00,6,0.100,6023.000,0.200,1712.000,0.300,1388.000,0.500,1685.000,1.000,631.000,5.000,1.000
"04/09/08","03:11:25",11222.000,"cc",28314.967,6.00,6,0.100,5956.000,0.200,1599.000,0.300,1331.000,0.500,1688.000,1.000,648.000,5.000,0
"04/09/08","03:11:31",10738.000,"cc",28223.973,6.00,6,0.100,5723.000,0.200,1542.000,0.300,1312.000,0.500,1570.000,1.000,591.000,5.000,0
"04/09/08","03:11:37",11025.000,"cc",28441.455,6.00,6,0.100,5800.000,0.200,1545.000,0.300,1348.000,0.500,1689.000,1.000,643.000,5.000,0
"04/09/08","03:11:43",10928.000,"cc",28407.734,6.00,6,0.100,5875.000,0.200,1541.000,0.300,1314.000,0.500,1548.000,1.000,650.000,5.000,0
"04/09/08","03:11:49",10552.000,"cc",28218.477,6.00,6,0.100,5703.000,0.200,1476.000,0.300,1276.000,0.500,1504.000,1.000,593.000,5.000,0
"04/09/08","03:11:55",10541.000,"cc",28338.340,6.00,6,0.100,5692.000,0.200,1492.000,0.300,1241.000,0.500,1505.000,1.000,611.000,5.000,0
"04/09/08","03:12:01",10551.000,"cc",28312.367,6.00,6,0.100,5733.000,0.200,1495.000,0.300,1242.000,0.500,1475.000,1.000,606.000,5.000,0
"04/09/08","03:12:07",10532.000,"cc",28385.799,6.00,6,0.100,5722.000,0.200,1470.000,0.300,1215.000,0.500,1528.000,1.000,597.000,5.000,0
"04/09/08","03:12:13",10368.000,"cc",28318.123,6.00,6,0.100,5505.000,0.200,1530.000,0.300,1224.000,0.500,1544.000,1.000,565.000,5.000,0
"04/09/08","03:12:19",10650.000,"cc",28202.205,6.00,6,0.100,5783.000,0.200,1504.000,0.300,1247.000,0.500,1552.000,1.000,564.000,5.000,0
"04/09/08","03:12:25",10573.000,"cc",28302.115,6.00,6,0.100,5702.000,0.200,1518.000,0.300,1257.000,0.500,1511.000,1.000,584.000,5.000,1.000
"04/09/08","03:12:31",10705.000,"cc",28345.836,6.00,6,0.100,5723.000,0.200,1511.000,0.300,1308.000,0.500,1566.000,1.000,597.000,5.000,0
"04/09/08","03:12:37",11279.000,"cc",28320.047,6.00,6,0.100,6070.000,0.200,1582.000,0.300,1397.000,0.500,1588.000,1.000,642.000,5.000,0
"04/09/08","03:12:43",10939.000,"cc",28302.143,6.00,6,0.100,5818.000,0.200,1545.000,0.300,1371.000,0.500,1602.000,1.000,603.000,5.000,0
"04/09/08","03:12:49",11188.000,"cc",28221.436,6.00,6,0.100,5974.000,0.200,1537.000,0.300,1374.000,0.500,1670.000,1.000,633.000,5.000,0
"04/09/08","03:12:55",10962.000,"cc",28329.297,6.00,6,0.100,5846.000,0.200,1645.000,0.300,1243.000,0.500,1585.000,1.000,643.000,5.000,0
"04/09/08","03:13:01",11237.000,"cc",28296.025,6.00,6,0.100,5956.000,0.200,1650.000,0.300,1362.000,0.500,1649.000,1.000,620.000,5.000,0
"04/09/08","03:13:07",11231.000,"cc",28339.844,6.00,6,0.100,5988.000,0.200,1686.000,0.300,1363.000,0.500,1589.000,1.000,605.000,5.000,0
"04/09/08","03:13:13",11398.000,"cc",28313.231,6.00,6,0.100,5903.000,0.200,1680.000,0.300,1429.000,0.500,1727.000,1.000,659.000,5.000,0
"04/09/08","03:13:19",11501.000,"cc",28285.945,6.00,6,0.100,5959.000,0.200,1699.000,0.300,1426.000,0.500,1755.000,1.000,662.000,5.000,0
"04/09/08","03:13:25",11560.000,"cc",28266.807,6.00,6,0.100,6043.000,0.200,1708.000,0.300,1442.000,0.500,1713.000,1.000,654.000,5.000,0
"04/09/08","03:13:31",10844.000,"cc",28320.072,6.00,6,0.100,5821.000,0.200,1581.000,0.300,1319.000,0.500,1504.000,1.000,619.000,5.000,0
"04/09/08","03:13:37",10815.000,"cc",28367.133,6.00,6,0.100,5800.000,0.200,1484.000,0.300,1312.000,0.500,1576.000,1.000,643.000,5.000,0
"04/09/08","03:13:43",10766.000,"cc",28293.125,6.00,6,0.100,5718.000,0.200,1582.000,0.300,1274.000,0.500,1569.000,1.000,623.000,5.000,0
"04/09/08","03:13:49",10608.000,"cc",28284.627,6.00,6,0.100,5696.000,0.200,1530.000,0.300,1198.000,0.500,1579.000,1.000,605.000,5.000,0
"04/09/08","03:13:55",10551.000,"cc",28409.232,6.00,6,0.100,5634.000,0.200,1443.000,0.300,1285.000,0.500,1571.000,1.000,618.000,5.000,0
"04/09/08","03:14:01",10563.000,"cc",28370.430,6.00,6,0.100,5665.000,0.200,1489.000,0.300,1212.000,0.500,1569.000,1.000,627.000,5.000,1.000
"04/09/08","03:14:07",10620.000,"cc",28273.631,6.00,6,0.100,5663.000,0.200,1502.000,0.300,1278.000,0.500,1540.000,1.000,637.000,5.000,0
"04/09/08","03:14:13",11018.000,"cc",28254.635,6.00,6,0.100,5881.000,0.200,1586.000,0.300,1299.000,0.500,1621.000,1.000,631.000,5.000,0
"04/09/08","03:14:19",10958.000,"cc",28398.686,6.00,6,0.100,5735.000,0.200,1569.000,0.300,1381.000,0.500,1645.000,1.000,628.000,5.000,0
"04/09/08","03:14:25",10782.000,"cc",28334.160,6.00,6,0.100,5595.000,0.200,1553.000,0.300,1413.000,0.500,1614.000,1.000,607.000,5.000,0
"04/09/08","03:14:31",10660.000,"cc",28142.861,6.00,6,0.100,5578.000,0.200,1617.000,0.300,1326.000,0.500,1527.000,1.000,612.000,5.000,0
"04/09/08","03:14:37",10959.000,"cc",28365.816,6.00,6,0.100,5814.000,0.200,1602.000,0.300,1310.000,0.500,1652.000,1.000,581.000,5.000,0
"04/09/08","03:14:43",10634.000,"cc",28403.842,6.00,6,0.100,5558.000,0.200,1581.000,0.300,1295.000,0.500,1608.000,1.000,592.000,5.000,0
"04/09/08","03:14:49",10547.000,"cc",28325.611,6.00,6,0.100,5624.000,0.200,1456.000,0.300,1287.000,0.500,1592.000,1.000,588.000,5.000,0
"04/09/08","03:14:55",10888.000,"cc",28296.277,6.00,6,0.100,5762.000,0.200,1571.000,0.300,1327.000,0.500,1611.000,1.000,617.000,5.000,0
"04/09/08","03:15:01",10544.000,"cc",28282.680,6.00,6,0.100,5563.000,0.200,1522.000,0.300,1296.000,0.500,1564.000,1.000,598.000,5.000,1.000
"04/09/08","03:15:07",10676.000,"cc",28312.621,6.00,6,0.100,5618.000,0.200,1498.000,0.300,1355.000,0.500,1592.000,1.000,613.000,5.000,0
"04/09/08","03:15:13",10717.000,"cc",28239.129,6.00,6,0.100,5613.000,0.200,1567.000,0.300,1316.000,0.500,1544.000,1.000,676.000,5.000,1.000
"04/09/08","03:15:19",10562.000,"cc",28324.418,6.00,6,0.100,5567.000,0.200,1536.000,0.300,1279.000,0.500,1560.000,1.000,620.000,5.000,0
"04/09/08","03:15:25",10565.000,"cc",28355.213,6.00,6,0.100,5631.000,0.200,1543.000,0.300,1270.000,0.500,1520.000,1.000,601.000,5.000,0
"04/09/08","03:15:31",10556.000,"cc",28363.123,6.00,6,0.100,5616.000,0.200,1614.000,0.300,1240.000,0.500,1486.000,1.000,600.000,5.000,0
"04/09/08","03:15:37",10482.000,"cc",28289.762,6.00,6,0.100,5558.000,0.200,1562.000,0.300,1306.000,0.500,1469.000,1.000,587.000,5.000,0
"04/09/08","03:15:43",10538.000,"cc",28307.076,6.00,6,0.100,5556.000,0.200,1519.000,0.300,1263.000,0.500,1561.000,1.000,639.000,5.000,0
"04/09/08","03:15:49",11328.000,"cc",28272.543,6.00,6,0.100,5870.000,0.200,1670.000,0.300,1440.000,0.500,1719.000,1.000,629.000,5.000,0
"04/09/08","03:15:55",11274.000,"cc",28380.844,6.00,6,0.100,5914.000,0.200,1661.000,0.300,1413.000,0.500,1649.000,1.000,637.000,5.000,0
"04/09/08","03:16:01",10740.000,"cc",28298.580,6.00,6,0.100,5611.000,0.200,1543.000,0.300,1325.000,0.500,1644.000,1.000,617.000,5.000,0
"04/09/08","03:16:07",10406.000,"cc",28332.158,6.00,6,0.100,5592.000,0.200,1462.000,0.300,1252.000,0.500,1491.000,1.000,609.000,5.000,0
"04/09/08","03:16:13",10449.000,"cc",28243.027,6.00,6,0.100,5471.000,0.200,1538.000,0.300,1264.000,0.500,1574.000,1.000,602.000,5.000,0
"04/09/08","03:16:19",10640.000,"cc",28417.975,6.00,6,0.100,5617.000,0.200,1502.000,0.300,1324.000,0.500,1564.000,1.000,632.000,5.000,1.000
"04/09/08","03:16:25",11024.000,"cc",28284.498,6.00,6,0.100,5787.000,0.200,1551.000,0.300,1379.000,0.500,1668.000,1.000,639.000,5.000,0